FW5682 Weather Reports


Display with metric or nautical units.
time (UTC)temp
F
wind
direction
speed
MPH
gust
MPH
rain 1hr
in
rain 24hr
in
rain mn
in
humidity
%
barometer
mb
20260504041728 45 28 3.0 7.0 0.00 0.24 0.01 96 1012.3
20260504041228 45 17 4.0 7.0 0.00 0.26 0.01 96 1012.2
20260504040728 45 39 4.0 6.0 0.00 0.27 0.01 96 1012.2
20260504040228 45 30 4.0 7.0 0.00 0.28 0.01 96 1012.2
20260504035728 45 25 4.0 7.0 0.00 0.29 0.01 96 1012.1
20260504035227 45 16 3.0 6.0 0.00 0.31 0.01 96 1012.1
20260504034728 45 14 5.0 6.0 0.00 0.31 0.01 96 1012.1
20260504034228 45 37 3.0 6.0 0.00 0.33 0.01 96 1012.0
20260504033727 45 31 5.0 6.0 0.00 0.34 0.01 96 1011.9
20260504033229 45 21 4.0 6.0 0.00 0.35 0.01 96 1012.0
20260504032727 45 28 4.0 7.0 0.00 0.35 0.01 96 1011.9
20260504032227 45 37 4.0 7.0 0.00 0.37 0.01 96 1011.9
20260504031727 45 39 3.0 6.0 0.00 0.39 0.01 96 1012.0
20260504031226 45 17 4.0 6.0 0.00 0.39 0.01 96 1012.1
20260504030726 45 16 3.0 6.0 0.00 0.40 0.01 96 1012.0
20260504030226 45 8 4.0 9.0 0.00 0.41 0.01 96 1012.0
20260504025226 45 32 4.0 7.0 0.00 0.42 0.01 96 1011.8
20260504024726 45 27 5.0 7.0 0.00 0.43 0.01 96 1011.9
20260504024227 45 41 4.0 6.0 0.00 0.43 0.01 96 1011.8
20260504022726 45 44 3.0 10.0 0.00 0.49 0.01 96 1011.9
20260504022454 45 8 6.0 10.0 0.01 0.51 0.01 96 1011.8
20260504021726 45 23 4.0 9.0 0.01 0.54 0.01 96 1011.8
20260504021225 45 27 4.0 10.0 0.01 0.54 0.01 96 1011.9
20260504020725 45 18 4.0 10.0 0.01 0.55 0.01 96 1011.8
20260504020225 45 6 4.0 10.0 0.01 0.56 0.01 96 1011.8
20260504015945 45 0 4.0 9.0 0.01 0.57 0.01 96 1011.8
20260504015224 45 0 5.0 9.0 0.01 0.57 0.01 96 1011.8
20260504014731 45 0 4.0 10.0 0.01 0.57 0.01 96 1011.7
20260504013725 45 28 4.0 9.0 0.01 0.58 0.01 96 1011.8
20260504013224 45 27 4.0 7.0 0.01 0.58 0.01 96 1011.7
20260504012724 45 13 4.0 7.0 0.01 0.58 0.01 96 1011.7
20260504012225 45 17 4.0 9.0 0.00 0.58 0.00 96 1011.8
20260504011724 45 13 4.0 9.0 0.00 0.58 0.00 96 1011.7
20260504011223 45 25 3.0 9.0 0.00 0.58 0.00 96 1011.6
20260504010724 45 21 5.0 9.0 0.00 0.59 0.00 96 1011.6
20260504010224 45 28 5.0 7.0 0.00 0.59 0.00 96 1011.6
20260504005723 45 10 4.0 7.0 0.00 0.60 0.00 96 1011.7
20260504005448 45 18 5.0 9.0 0.00 0.60 0.00 96 1011.6
20260504004724 45 24 4.0 9.0 0.00 0.60 0.00 96 1011.5
20260504004223 45 28 4.0 10.0 0.00 0.60 0.00 96 1011.5
20260504003723 45 23 4.0 10.0 0.00 0.61 0.00 96 1011.4
20260504003223 46 18 5.0 11.0 0.00 0.61 0.00 96 1011.5
20260504002723 46 37 5.0 11.0 0.00 0.61 0.00 96 1011.4
20260504002222 46 27 4.0 11.0 0.00 0.61 0.00 96 1011.4
20260504001722 46 49 6.0 11.0 0.00 0.61 0.00 96 1011.4
20260504001441 46 32 6.0 11.0 0.00 0.61 0.00 96 1011.4
20260504000722 46 28 6.0 11.0 0.00 0.61 0.00 96 1011.4
20260504000222 46 31 5.0 10.0 0.00 0.61 0.00 96 1011.4
20260503235722 46 23 4.0 11.0 0.00 0.62 0.00 96 1011.5
20260503235222 46 38 6.0 11.0 0.00 0.62 0.00 96 1011.4
20260503234722 46 25 6.0 10.0 0.00 0.62 0.00 96 1011.4
20260503234441 46 47 6.0 12.0 0.00 0.62 0.00 96 1011.3
20260503233721 46 42 6.0 12.0 0.00 0.62 0.00 96 1011.4
20260503233221 46 42 5.0 10.0 0.00 0.63 0.00 96 1011.4
20260503232721 46 27 6.0 10.0 0.00 0.63 0.00 96 1011.3
20260503232222 46 28 6.0 10.0 0.00 0.63 0.00 96 1011.3
20260503231720 46 13 5.0 9.0 0.00 0.63 0.00 96 1011.3
20260503231447 46 34 4.0 12.0 0.00 0.63 0.00 96 1011.3
20260503230720 46 37 7.0 12.0 0.00 0.64 0.00 96 1011.3
20260503230220 46 30 7.0 12.0 0.00 0.64 0.00 96 1011.3
20260503225720 46 41 6.0 12.0 0.00 0.65 0.65 96 1011.3
20260503225221 46 28 4.0 13.0 0.00 0.65 0.65 96 1011.2
20260503224720 46 1 4.0 13.0 0.00 0.66 0.65 96 1011.2
20260503224220 46 30 7.0 12.0 0.00 0.66 0.65 96 1011.1
20260503223720 46 45 6.0 12.0 0.00 0.68 0.65 96 1011.1
20260503223219 46 0 4.0 12.0 0.00 0.69 0.65 96 1011.1
20260503222720 46 37 8.0 12.0 0.00 0.70 0.65 96 1011.1
20260503222220 46 353 6.0 11.0 0.00 0.71 0.65 96 1011.1
20260503221720 46 0 6.0 12.0 0.00 0.72 0.65 96 1011.0
20260503221220 46 37 7.0 12.0 0.00 0.72 0.65 96 1011.1
20260503220719 46 14 6.0 12.0 0.00 0.72 0.65 96 1011.1
20260503220219 46 41 7.0 11.0 0.00 0.72 0.65 96 1011.0
20260503215719 46 331 4.0 10.0 0.00 0.73 0.65 96 1010.9
20260503215219 46 23 3.0 9.0 0.00 0.73 0.65 96 1010.9
20260503214938 46 45 6.0 11.0 0.00 0.74 0.65 96 1011.0
20260503214219 47 21 7.0 11.0 0.00 0.74 0.65 96 1010.9
20260503213718 47 21 6.0 13.0 0.00 0.75 0.65 96 1010.8
20260503213219 47 8 7.0 13.0 0.00 0.76 0.65 96 1010.8
20260503212719 47 30 7.0 12.0 0.00 0.76 0.65 96 1010.8
20260503212218 47 16 7.0 13.0 0.00 0.77 0.65 96 1010.8
20260503211718 47 23 8.0 13.0 0.00 0.77 0.65 96 1010.8
20260503211218 47 16 6.0 11.0 0.00 0.78 0.65 96 1010.7
20260503210717 47 18 5.0 12.0 0.00 0.78 0.65 96 1010.7
20260503210439 47 8 6.0 12.0 0.00 0.78 0.65 96 1010.8
20260503205717 47 35 6.0 12.0 0.00 0.78 0.65 96 1010.6
20260503205443 47 27 7.0 13.0 0.00 0.78 0.65 96 1010.6
20260503204717 47 0 6.0 13.0 0.00 0.78 0.65 96 1010.6
20260503204217 47 31 8.0 12.0 0.00 0.78 0.65 96 1010.6
20260503203717 47 0 8.0 12.0 0.00 0.78 0.65 96 1010.5
20260503203215 47 61 6.0 14.0 0.00 0.78 0.65 96 1010.4
20260503202715 47 23 9.0 14.0 0.00 0.78 0.65 96 1010.4
20260503202216 47 31 6.0 11.0 0.00 0.78 0.65 96 1010.3
20260503201713 47 31 5.0 12.0 0.00 0.78 0.65 96 1010.3
20260503201213 47 28 7.0 14.0 0.00 0.78 0.65 96 1010.2
20260503200711 47 8 6.0 16.0 0.00 0.78 0.65 96 1010.0
20260503200432 47 0 9.0 16.0 0.00 0.78 0.65 96 1010.0
20260503195713 47 13 9.0 14.0 0.00 0.78 0.65 96 1010.0
20260503195211 47 27 5.0 13.0 0.00 0.78 0.65 96 1010.0
20260503194929 47 18 6.0 14.0 0.00 0.78 0.65 95 1009.8
20260503194211 47 27 8.0 14.0 0.00 0.78 0.65 95 1009.8
20260503193935 47 30 7.0 14.0 0.00 0.78 0.65 96 1009.8
20260503193209 47 32 9.0 13.0 0.00 0.78 0.65 96 1009.7
20260503192706 47 25 7.0 15.0 0.00 0.78 0.65 96 1009.7
20260503192427 48 23 9.0 15.0 0.00 0.78 0.65 96 1009.6
20260503191708 48 13 8.0 13.0 0.00 0.78 0.65 96 1009.6
20260503191205 48 0 7.0 13.0 0.00 0.78 0.65 96 1009.5
20260503190705 48 25 5.0 12.0 0.00 0.78 0.65 96 1009.5
20260503190205 48 31 6.0 13.0 0.00 0.78 0.65 96 1009.4
20260503185702 48 351 8.0 13.0 0.00 0.78 0.65 96 1009.4
20260503185203 48 17 4.0 12.0 0.00 0.78 0.65 96 1009.4
20260503184702 48 6 7.0 14.0 0.00 0.78 0.65 96 1009.3
20260503184203 48 6 6.0 14.0 0.00 0.78 0.65 96 1009.3
20260503183703 48 10 8.0 15.0 0.00 0.78 0.65 96 1009.2
20260503183202 48 0 5.0 15.0 0.00 0.78 0.65 96 1009.1
20260503182703 48 6 6.0 12.0 0.00 0.78 0.65 96 1009.1
20260503182202 48 18 6.0 13.0 0.00 0.78 0.65 96 1009.0
20260503181702 48 51 7.0 13.0 0.00 0.78 0.65 95 1009.0
20260503181203 48 348 8.0 13.0 0.00 0.78 0.65 95 1009.0
20260503180704 48 28 7.0 13.0 0.00 0.78 0.65 96 1008.9
20260503180203 48 10 5.0 12.0 0.00 0.78 0.65 96 1008.9
20260503175700 48 34 7.0 15.0 0.00 0.78 0.65 96 1008.7
20260503175200 48 348 6.0 15.0 0.00 0.78 0.65 96 1008.8
20260503174700 49 13 8.0 13.0 0.00 0.78 0.65 96 1008.6
20260503174153 49 355 6.0 13.0 0.00 0.78 0.65 96 1008.8
20260503173653 49 8 8.0 16.0 0.00 0.78 0.65 96 1008.7
20260503173154 49 23 9.0 16.0 0.00 0.78 0.65 96 1008.7
20260503172650 49 0 7.0 12.0 0.00 0.78 0.65 96 1008.6
20260503172151 49 1 6.0 14.0 0.00 0.78 0.65 95 1008.6
20260503171651 49 0 10.0 14.0 0.00 0.78 0.65 96 1008.6
20260503171151 49 18 7.0 14.0 0.00 0.78 0.65 96 1008.5
20260503170650 49 16 6.0 14.0 0.00 0.78 0.65 95 1008.5
20260503170150 49 21 5.0 14.0 0.00 0.78 0.65 95 1008.5
20260503160146 49 0 7.0 14.0 0.00 0.78 0.65 95 1008.3
20260503150638 50 1 6.0 13.0 0.01 0.78 0.65 96 1008.1
20260503150138 50 27 6.0 13.0 0.01 0.78 0.65 95 1008.1
20260503140131 51 35 6.0 12.0 0.01 0.77 0.64 96 1008.1
20260503131132 50 28 7.0 11.0 0.00 0.76 0.63 96 1007.8
20260503130631 50 42 6.0 10.0 0.01 0.76 0.63 96 1007.8
20260503130132 51 42 6.0 11.0 0.01 0.76 0.63 96 1008.0
20260503120127 50 0 6.0 14.0 0.00 0.76 0.62 96 1007.7
20260503110620 50 18 6.0 12.0 0.01 0.76 0.62 96 1007.6
20260503110345 50 39 7.0 13.0 0.01 0.76 0.62 96 1007.6
20260503100108 50 42 9.0 15.0 0.01 0.75 0.61 96 1007.4
20260503081559 50 58 7.0 14.0 0.05 0.71 0.58 96 1007.4
20260503081101 50 23 6.0 12.0 0.05 0.71 0.57 96 1007.3
20260503080605 50 7 6.0 14.0 0.05 0.71 0.57 96 1007.3
20260503080104 50 69 9.0 14.0 0.05 0.70 0.57 96 1007.3
20260503072559 50 59 8.0 13.0 0.03 0.66 0.54 96 1007.2
20260503072058 50 65 6.0 17.0 0.03 0.66 0.54 96 1007.2
20260503071559 50 354 11.0 17.0 0.03 0.66 0.54 96 1007.2
20260503071058 50 13 7.0 20.0 0.03 0.66 0.53 96 1007.1
20260503070558 50 49 8.0 20.0 0.03 0.66 0.53 96 1007.1
20260503055056 50 13 10.0 16.0 0.04 0.61 0.50 96 1006.7
20260503054812 50 31 9.0 16.0 0.05 0.61 0.50 96 1006.7
20260503054312 50 68 8.0 14.0 0.05 0.61 0.49 95 1006.7
20260503053557 50 30 7.0 15.0 0.06 0.61 0.49 96 1006.7
20260503053315 50 23 7.0 15.0 0.06 0.61 0.49 96 1006.7
20260503052556 50 44 6.0 19.0 0.06 0.61 0.49 96 1006.8
20260503052057 50 0 7.0 19.0 0.07 0.61 0.49 96 1006.6
20260503051555 50 45 6.0 17.0 0.08 0.61 0.48 96 1006.7
20260503051056 50 31 9.0 17.0 0.09 0.61 0.48 96 1006.7
20260503050820 50 34 8.0 14.0 0.09 0.61 0.47 95 1006.6
20260503050324 50 61 8.0 14.0 0.10 0.61 0.47 95 1006.6
20260503045819 50 37 8.0 16.0 0.12 0.50 0.46 95 1006.6
20260503045322 50 61 10.0 16.0 0.12 0.50 0.46 95 1006.6
20260503044555 50 59 8.0 16.0 0.12 0.50 0.45 95 1006.7
20260503044055 50 42 6.0 18.0 0.12 0.50 0.44 95 1006.8
20260503043555 50 37 10.0 18.0 0.12 0.50 0.43 95 1006.9
20260503043055 50 31 8.0 16.0 0.13 0.50 0.43 96 1006.9
20260503042555 50 27 8.0 16.0 0.13 0.50 0.43 95 1006.9
20260503042318 50 37 8.0 16.0 0.14 0.50 0.42 95 1006.9